Location: Codford Saint Peter
(51.1597°N, 2.0531°W)
Time: 05:29:04
(UTC+00:00)

OBJECT-B - Pass Details

Date: 18 September 2020
Orbit: 421 x 433 km, 97.0° (Epoch: 09 October)

Event Time Altitude Azimuth Distance (km) Brightness Sun altitude
Exits shadow 19:01:25 11° 97° (E) 1,454 2.8 -8.1°
Maximum altitude 19:03:09 15° 63° (ENE) 1,231 2.7 -8.4°
Drops below altitude 10° 19:05:09 10° 25° (NNE) 1,524 3.5 -8.7°
Sets 19:07:44 0° 2° (N) 2,398 4.7 -9.1°
